Skip Page Navigation
NASA JPL Caltech
NASA Logo - Jet Propulsion Laboratory + View the NASA Portal
+ Near-Earth Object (NEO) Program
Search JPL
JPL Home Earth Solar System Stars & Galaxies Technology
JPL Solar System Dynamics
BODIES ORBITS EPHEMERIDES TOOLS PHYSICAL DATA DISCOVERY FAQ SITE MAP
JPL Small-Body Database Browser
Search: [ help ]  
10747 Kothen (1989 CW7)
Classification: Main-belt Asteroid          SPK-ID: 2010747
Ephemeris | Orbit Diagram | Orbital Elements | Physical Parameters | Discovery Circumstances | Close-Approach Data ]

[ show orbit diagram ]
Orbital Elements at Epoch 2456800.5 (2014-May-23.0) TDB
Reference: JPL 4 (heliocentric ecliptic J2000)
 Element Value Uncertainty (1-sigma)   Units 
e .1164846024032923 6.5651e-08  
a 2.238498950140734 1.3802e-08 AU
q 1.977748289953403 1.4691e-07 AU
i 3.495553880570888 8.2118e-06 deg
node 198.9264121514619 8.3626e-05 deg
peri 220.6696002643856 9.0465e-05 deg
M 244.5175396022699 3.4806e-05 deg
tp 2457192.916533277657
(2015-Jun-19.41653328)
0.00011982 JED
period 1223.302235624461
3.35
1.1314e-05
3.098e-08
d
yr
n .2942854100288881 2.7217e-09 deg/d
Q 2.499249610328064 1.5409e-08 AU
  Orbit Determination Parameters
   # obs. used (total)      931  
   data-arc span      11019 days (30.17 yr)  
   first obs. used      1983-05-07  
   last obs. used      2013-07-07  
   planetary ephem.      DE431  
   SB-pert. ephem.      SB431-BIG16  
   condition code      0  
   fit RMS      .52912  
   data source      ORB  
   producer      Otto Matic  
   solution date      2013-Aug-05 16:41:45  

Additional Information
 Earth MOID = .99037 AU 
 T_jup = 3.625 
[ show covariance matrix ]

Ephemeris | Orbit Diagram | Orbital Elements | Physical Parameters | Discovery Circumstances | Close-Approach Data ]

Physical Parameter Table
Parameter Symbol Value Units Sigma Reference Notes
absolute magnitude H 14.4 mag n/a MPO266015  

10747 Köthen           Discovered 1989 Feb. 1 by F. Borngen at Tautenburg.
Köthen is a Saxon-Anhaltian town. J. S. Bach was the princely conductor there during 1717-1723, becoming the friend and travel attendant of the art-loving duke Leopold of Anhalt-Köthen. In Köthen Bach composed most of his chamber music, including all six Brandenburg concerti.
NOTE: some special characters may not display properly (any characters within {} are an attempt to place the proper accent above a character)
Reference: 20000124/MPCPages.arcLast Updated: 2013-03-29

[ show close-approach data ]
Alternate Designations
 1989 CW7 = 1989 AS9 = 1998 WX7 
Ephemeris | Orbit Diagram | Orbital Elements | Physical Parameters | Discovery Circumstances | Close-Approach Data ]
ABOUT SSD CREDITS/AWARDS PRIVACY/COPYRIGHT GLOSSARY LINKS
FirstGov 2014-Apr-20 11:04 UT
(server date/time)  
NASA Home Page
Site Manager:   Donald K. Yeomans
Webmaster  Alan B. Chamberlin